EW7191 Weather Reports


Display with metric or nautical units.
time (UTC)temp
F
wind
direction
speed
MPH
gust
MPH
rain 1hr
in
rain 24hr
in
rain mn
in
humidity
%
barometer
mb
20260504081548 54 90 0.0 0.0 0.00 0.06 0.00 93 1017.2
20260504044531 57 77 0.0 0.0 0.00 0.06 0.06 92 1016.6
20260504043038 57 257 0.0 0.0 0.00 0.06 0.06 91 1016.4
20260504041530 57 257 0.0 0.0 0.00 0.06 0.06 90 1016.2
20260504040030 58 257 0.0 0.0 0.00 0.06 0.06 89 1016.0
20260504034530 59 257 0.0 0.0 0.00 0.06 0.06 87 1016.1
20260504033028 60 257 0.0 0.0 0.00 0.06 0.06 85 1015.9
20260504031531 61 261 0.0 0.0 0.00 0.06 0.06 84 1015.8
20260504030027 61 261 0.0 0.0 0.00 0.06 0.06 84 1015.2
20260504024530 61 261 0.0 0.0 0.00 0.06 0.06 85 1014.9
20260504023026 61 260 0.0 0.0 0.00 0.06 0.06 85 1014.9
20260504021525 61 108 0.0 2.0 0.00 0.06 0.06 85 1015.0
20260504020027 60 91 0.0 0.0 0.00 0.06 0.06 88 1015.0
20260504014534 60 79 0.0 0.0 0.00 0.06 0.06 87 1015.3
20260504013035 61 98 0.0 0.0 0.00 0.06 0.06 83 1015.5
20260504011523 62 248 0.0 0.0 0.01 0.06 0.06 80 1015.5
20260504010022 61 329 0.0 0.0 0.04 0.06 0.06 81 1015.0
20260504004527 62 76 0.0 1.0 0.06 0.06 0.06 81 1015.2
20260504003021 63 85 0.0 0.0 0.06 0.06 0.06 82 1014.9
20260504001521 67 129 0.0 6.0 0.05 0.05 0.05 69 1014.9
20260504000020 72 63 4.0 17.0 0.01 0.01 0.01 54 1013.9
20260503234521 79 46 1.0 12.0 0.00 0.00 0.00 35 1012.7
20260503233021 81 32 0.0 6.0 0.00 0.00 0.00 33 1012.5
20260503231519 84 58 0.0 12.0 0.00 0.00 0.00 29 1012.4
20260503230020 84 281 0.0 0.0 0.00 0.00 0.00 35 1012.3
20260503224514 84 233 0.0 1.0 0.00 0.00 0.00 39 1012.4
20260503223012 84 285 0.0 1.0 0.00 0.00 0.00 38 1012.7
20260503221510 85 241 0.0 1.0 0.00 0.00 0.00 42 1012.9
20260503220007 85 297 0.0 0.0 0.00 0.00 0.00 41 1013.0
20260503214506 85 310 0.0 0.0 0.00 0.00 0.00 41 1013.4
20260503213002 85 148 0.0 0.0 0.00 0.00 0.00 40 1013.7
20260503211558 84 148 0.0 0.0 0.00 0.00 0.00 37 1013.9
20260503210055 82 222 0.0 0.0 0.00 0.00 0.00 41 1014.2
20260503204552 81 226 0.0 0.0 0.00 0.00 0.00 41 1014.3
20260503203104 81 269 0.0 0.0 0.00 0.00 0.00 38 1014.6
20260503201546 80 141 0.0 0.0 0.00 0.00 0.00 46 1014.7
20260503200044 80 261 0.0 0.0 0.00 0.00 0.00 43 1015.0
20260503194543 78 120 0.0 0.0 0.00 0.00 0.00 43 1015.1
20260503193039 77 91 0.0 0.0 0.00 0.00 0.00 46 1015.5
20260503191531 75 283 0.0 0.0 0.00 0.00 0.00 47 1015.7
20260503190040 75 322 0.0 0.0 0.00 0.00 0.00 46 1015.9
20260503184527 74 259 0.0 0.0 0.00 0.00 0.00 50 1016.1
20260503183022 72 250 0.0 0.0 0.00 0.00 0.00 53 1016.2
20260503181517 71 300 0.0 0.0 0.00 0.00 0.00 59 1016.4
20260503180015 69 110 0.0 0.0 0.00 0.00 0.00 64 1016.7
20260503174511 67 270 0.0 0.0 0.00 0.00 0.00 65 1016.8
20260503173008 66 280 0.0 0.0 0.00 0.00 0.00 72 1016.9
20260503171504 65 141 0.0 0.0 0.00 0.00 0.00 76 1017.0